Wind_Speed
14 16 16 15 15 15 16 16 16 16 17 18 20 22 24 25 26 26 25 24 21 18 17 16 14 13 13 13 13 14 14 14 15 15 15 15 14 14 13 12 10 9 8 7 8 8 8 9 8 7 7 6 6 7 6 6 5 5 6 6 6 6 6 6 6 6 6 6 7 7 7 8 8 9 10 10 10 11 11 11 11 10 10 10 10
15 16 16 15 15 16 16 17 16 17 17 18 20 22 24 25 25 25 24 24 21 18 16 15 14 12 12 12 12 13 13 13 14 14 14 14 14 14 13 12 11 10 8 7 7 7 8 8 8 7 6 6 6 6 6 5 5 5 5 5 5 5 6 6 6 6 7 7 7 7 8 8 9 10 10 11 11 11 11 11 11 10 10 10 10
16 17 17 16 16 17 18 18 18 18 19 19 21 22 24 24 24 24 24 23 20 17 16 15 13 11 11 11 11 12 13 13 13 13 14 14 14 14 13 12 11 10 9 7 7 7 7 7 7 7 6 6 6 6 5 5 5 5 5 5 5 5 6 6 6 6 7 7 7 8 8 9 9 10 10 10 10 10 10 11 11 10 10 10 10
17 18 17 17 17 18 19 20 20 20 21 21 22 23 24 24 24 24 24 23 20 17 15 13 12 10 10 10 10 12 12 12 12 13 13 14 14 14 13 13 12 10 9 8 7 6 6 7 7 6 6 5 6 5 4 5 5 5 5 5 6 6 6 6 6 6 6 7 7 7 8 8 9 9 9 9 9 9 10 10 11 11 10 10 10
17 17 16 17 18 19 20 21 21 22 22 23 23 24 24 25 24 24 23 22 19 16 14 12 11 10 9 9 10 11 12 11 12 12 13 13 14 13 13 12 11 10 9 8 7 6 6 6 6 5 5 5 5 4 3 4 5 6 6 6 6 6 6 6 6 6 6 6 7 7 7 7 8 8 8 8 8 8 9 10 11 11 11 11 11
16 16 16 17 18 20 21 22 22 23 23 23 24 25 25 25 24 24 23 21 17 14 13 11 10 9 8 8 9 11 11 11 11 12 13 13 13 13 13 12 12 10 9 8 7 6 5 5 5 5 4 4 3 2 3 4 5 6 6 7 6 6 6 5 5 6 6 6 6 6 7 7 7 8 8 8 8 8 9 10 11 11 11 11 12
17 16 16 17 19 21 22 23 23 23 24 24 25 26 27 26 24 23 22 19 15 13 13 10 9 8 7 8 9 10 11 10 11 12 13 13 13 13 12 12 12 11 10 8 7 6 5 5 5 4 3 3 2 2 3 4 5 6 7 7 7 6 6 5 5 5 6 6 6 7 7 7 7 7 8 8 9 9 10 10 11 11 11 12 12
18 16 16 17 19 21 22 23 24 24 25 25 26 26 27 27 25 23 21 18 14 12 11 9 7 7 7 7 8 9 10 9 10 11 12 12 13 13 13 12 12 11 10 9 7 6 6 5 4 3 3 2 1 1 3 4 6 7 7 8 8 7 6 5 5 5 5 6 6 7 7 7 7 8 8 8 9 10 10 11 11 12 12 12 13
18 16 16 17 19 21 22 23 24 25 25 26 26 26 28 27 25 22 19 16 13 10 10 8 6 6 6 7 7 9 9 9 9 10 12 12 12 13 13 12 12 11 10 9 8 7 6 5 4 3 2 1 0 1 3 5 6 7 8 8 8 7 6 5 5 5 5 6 6 7 7 7 8 8 8 9 10 10 10 11 12 12 13 13 14
18 17 17 18 20 21 22 24 25 25 26 26 25 26 27 27 24 20 17 15 11 9 9 6 5 5 5 6 6 7 8 8 8 9 11 11 12 12 13 12 12 11 10 9 8 7 6 5 4 3 2 2 1 1 3 5 6 8 8 8 7 7 6 5 5 5 6 6 6 7 7 8 9 9 9 10 10 10 11 11 12 13 13 14 15
20 18 18 19 20 20 21 23 24 25 25 25 24 25 26 26 23 18 15 13 10 8 7 5 4 4 5 5 5 6 7 7 7 8 10 11 11 12 12 12 11 10 9 8 7 6 6 5 3 3 3 3 2 2 4 5 7 8 8 7 7 6 5 5 5 5 5 6 6 7 7 8 9 9 9 10 10 10 11 12 12 13 14 15 15
22 19 19 20 20 19 20 22 22 23 24 24 23 24 25 24 20 16 14 12 9 7 6 4 3 4 4 4 4 5 6 6 6 7 8 9 10 11 12 11 10 9 8 7 7 6 5 4 3 3 3 3 3 3 4 6 7 8 8 7 6 5 4 4 4 4 5 5 6 7 7 7 8 9 9 10 10 11 12 13 14 14 15 15 16
23 20 19 20 19 19 19 21 21 22 23 23 23 23 24 22 18 14 13 10 8 7 6 4 3 3 4 4 4 4 5 5 5 5 7 8 9 10 11 10 9 8 7 6 6 5 4 4 3 3 4 4 4 4 5 7 8 9 8 6 5 5 4 4 4 4 5 5 6 6 7 7 8 9 9 10 11 12 13 14 15 15 16 16 17
23 19 19 19 19 18 19 20 20 22 23 24 23 22 22 20 16 14 12 10 8 7 5 3 3 3 4 4 4 4 4 5 5 5 6 7 9 10 10 10 9 8 7 5 5 4 4 3 3 3 4 5 5 5 6 7 8 8 7 6 5 5 4 5 5 5 5 6 6 7 7 8 9 9 10 10 11 12 13 14 15 16 17 18 19
23 19 18 19 19 19 19 20 21 22 23 24 23 22 20 19 16 14 12 9 8 6 5 4 3 4 5 5 4 4 4 4 4 5 6 7 8 9 10 10 10 8 7 6 5 4 4 4 4 4 4 5 6 6 6 7 7 7 6 6 5 5 5 5 5 6 6 6 6 7 8 8 9 10 10 11 12 13 14 15 16 17 18 19 20
23 20 19 20 21 20 20 20 22 23 23 23 22 21 19 19 17 13 11 9 8 6 5 4 4 5 5 5 5 5 4 4 4 5 6 6 7 8 9 9 9 9 8 6 5 5 5 5 5 5 5 6 6 7 7 7 7 6 6 6 6 6 6 6 6 6 6 6 7 7 8 8 9 10 11 12 13 13 14 16 16 18 19 20 21
22 21 21 22 23 22 21 22 23 23 23 22 21 20 19 18 17 13 11 10 9 7 6 5 4 5 6 6 6 6 4 4 5 5 6 6 7 7 8 8 8 8 8 7 6 6 6 6 6 5 6 6 7 8 8 7 6 5 5 5 5 6 6 7 7 7 7 7 8 8 8 9 10 11 12 13 14 15 16 17 18 19 21 22 23
23 24 24 25 25 23 23 23 23 24 23 23 22 20 18 18 16 13 12 11 9 8 7 6 6 7 8 8 7 7 6 5 6 6 6 7 7 7 7 8 8 8 7 7 7 7 7 7 6 6 6 6 7 8 8 8 7 6 5 5 5 5 6 6 6 7 8 8 8 9 9 10 11 12 13 14 15 16 17 19 20 21 23 23 24
25 26 26 27 26 26 25 25 24 23 23 23 22 20 18 17 16 14 13 12 11 9 8 7 7 8 9 9 8 7 7 7 7 7 7 8 8 8 8 8 9 8 7 7 7 7 7 8 7 7 6 7 7 8 8 7 7 6 5 5 4 5 5 6 6 7 8 8 9 10 10 11 12 13 14 16 17 18 19 20 21 23 24 25 25
27 28 28 29 29 29 28 27 25 23 23 23 23 20 18 17 16 15 14 13 12 10 9 9 9 9 10 11 10 8 7 8 8 8 8 9 9 9 9 9 9 9 8 8 8 8 8 8 8 8 7 7 7 8 8 7 6 6 5 5 5 5 6 6 7 7 8 9 10 11 12 12 13 14 16 18 19 20 20 22 23 24 26 26 27
28 29 30 31 31 31 30 28 25 23 24 24 22 19 17 16 16 15 15 14 13 11 10 10 10 10 11 12 11 9 8 8 8 9 9 9 9 9 9 9 10 10 9 9 9 8 8 9 9 9 8 8 8 8 8 7 7 6 6 6 6 7 8 8 9 9 10 11 12 13 14 15 16 17 18 19 21 21 22 23 25 26 26 27 28
29 31 32 33 33 32 30 28 25 25 26 25 22 18 17 17 16 16 16 15 14 12 11 11 12 11 12 12 12 10 9 9 9 9 10 10 10 10 10 10 10 10 10 10 10 9 9 9 9 10 9 8 7 7 7 7 7 7 7 7 8 8 9 10 11 12 12 13 15 15 16 17 18 19 20 21 23 23 24 25 26 27 27 28 29
31 32 34 35 34 32 28 26 26 27 27 23 19 17 17 17 17 17 17 16 15 13 12 12 13 12 12 12 12 11 10 10 10 10 11 11 11 11 11 11 11 11 11 11 11 10 10 9 9 9 9 8 8 7 7 8 8 8 8 8 8 9 10 12 13 14 15 16 16 17 18 19 20 21 22 23 24 25 25 26 27 28 28 29 29
33 34 35 35 33 30 25 23 23 21 19 17 16 17 17 18 18 19 19 18 16 14 13 13 13 13 13 12 12 11 11 11 11 11 12 12 12 12 12 12 11 12 12 12 12 11 10 9 9 9 9 9 8 8 8 8 8 9 9 9 10 10 11 13 14 15 17 18 18 19 20 21 22 23 24 25 25 26 27 28 28 29 30 30 31
35 36 35 34 31 28 22 17 15 11 10 12 15 17 18 18 19 19 20 18 16 16 15 14 14 14 13 12 12 11 11 12 12 12 14 14 13 13 14 13 12 13 13 13 12 12 11 9 8 9 9 9 9 9 9 9 10 10 11 11 11 12 12 14 15 16 18 19 20 21 22 23 24 25 26 26 26 27 28 29 30 30 31 31 31
36 36 34 32 30 27 22 16 12 10 12 15 18 19 19 19 19 18 19 17 16 16 16 15 15 14 13 13 12 12 12 12 13 14 15 15 14 14 15 14 14 14 14 13 13 12 12 11 9 9 9 9 9 10 10 10 11 11 12 12 13 13 14 15 16 17 19 21 21 23 24 25 25 26 27 27 28 29 30 31 31 31 31 31 32
36 35 32 30 29 27 24 22 20 19 20 21 22 22 20 20 18 17 17 15 14 15 16 16 16 15 14 13 13 12 13 13 14 15 16 16 15 15 16 16 16 16 15 15 14 14 13 12 11 9 9 10 10 11 11 11 12 12 13 14 14 15 16 17 18 19 20 22 23 24 25 26 26 27 28 29 30 30 31 31 31 31 31 31 31
34 33 31 29 28 27 25 24 25 27 26 24 23 23 22 20 18 16 15 13 13 14 16 16 16 16 15 14 13 13 13 14 15 16 16 15 15 16 17 18 18 17 17 16 16 16 15 14 13 11 11 11 11 12 12 13 13 13 14 15 16 17 18 19 20 21 21 23 24 25 26 27 28 29 30 31 31 31 31 31 30 31 31 31 32
32 31 30 28 27 27 26 25 25 27 26 24 24 24 22 22 19 16 15 14 14 14 14 16 17 16 16 15 14 14 15 14 14 15 15 15 15 16 18 19 20 20 19 18 18 18 18 16 14 13 12 12 13 13 14 14 14 15 15 16 17 18 20 21 22 23 23 24 25 26 27 28 29 30 30 30 31 31 31 31 31 31 32 32 33
31 31 30 28 26 26 26 26 26 26 26 25 25 24 24 23 20 18 17 16 15 13 14 16 17 17 16 16 15 16 16 15 14 15 15 16 16 18 19 21 22 22 21 20 20 19 19 18 16 15 14 14 14 15 15 15 15 16 17 17 19 20 21 22 23 24 25 25 26 27 29 29 30 30 30 30 30 31 32 32 32 32 32 32 32
31 31 30 28 26 25 26 27 27 27 27 27 26 26 25 24 22 19 18 17 16 14 15 17 17 17 17 17 17 17 17 16 15 15 16 17 18 19 20 21 22 22 23 23 22 21 20 19 17 16 16 16 17 17 17 16 16 17 17 18 20 21 23 23 24 25 26 27 27 28 29 30 30 30 30 30 31 32 32 32 33 33 32 32 31
31 31 30 28 26 26 27 27 27 27 28 29 28 27 26 24 23 20 18 18 17 16 16 18 18 18 18 18 18 18 17 16 16 16 17 17 18 19 20 20 21 22 23 24 23 22 21 19 18 17 17 17 18 18 18 17 17 18 18 19 21 22 23 24 25 26 27 28 29 30 30 30 30 30 30 31 32 32 32 32 31 31 31 31 31
31 31 29 28 27 27 27 27 28 28 29 30 30 28 25 24 23 20 19 19 18 17 17 19 20 19 19 19 19 18 17 17 17 17 17 17 18 19 19 20 20 20 22 23 23 22 20 18 18 18 18 18 19 19 18 18 18 18 19 20 21 23 24 25 26 27 28 29 30 30 30 30 30 30 31 32 31 31 31 31 30 31 31 31 31
32 31 29 28 28 27 27 27 28 29 30 31 31 28 25 24 22 20 19 20 19 18 19 21 22 21 21 20 19 19 18 18 18 17 17 16 17 18 18 18 18 19 20 21 22 21 19 18 18 18 18 19 19 18 18 17 17 18 19 21 22 23 24 25 26 27 29 30 30 30 30 30 31 31 31 31 31 31 30 30 31 31 30 30 30
32 30 29 28 27 27 27 28 29 30 32 33 31 28 25 24 22 20 20 20 20 21 22 23 22 21 20 20 20 19 19 18 18 17 17 16 16 17 18 18 18 18 19 20 20 19 19 18 19 19 19 19 18 18 17 17 18 19 21 22 23 24 25 26 27 28 29 29 30 30 30 31 31 31 31 30 30 30 31 31 31 30 30 30 29
31 29 27 26 26 27 27 28 29 31 33 33 30 27 25 24 21 20 21 21 22 22 23 23 22 20 19 20 20 19 19 18 18 17 17 17 17 17 18 18 18 18 19 20 20 19 18 18 19 18 18 18 18 17 17 18 19 21 22 22 23 24 26 27 28 29 29 29 30 30 31 31 31 31 31 31 31 31 31 31 30 30 29 29 29
28 26 24 25 26 27 28 29 30 31 32 31 29 27 25 23 21 21 22 22 23 23 23 23 21 19 19 20 20 20 19 19 18 18 18 18 18 18 18 18 19 19 19 19 18 18 18 18 18 17 17 17 17 17 18 19 20 21 22 23 24 25 27 28 28 29 29 30 30 30 31 31 31 31 31 31 32 31 31 31 30 30 30 30 30
24 22 22 24 25 27 28 29 30 29 29 29 28 27 25 24 22 22 23 23 23 24 24 23 21 20 20 21 21 21 20 19 18 18 19 19 18 18 17 18 19 19 19 18 18 18 18 18 18 17 17 17 17 17 18 19 21 22 23 25 26 27 27 28 28 29 29 30 30 30 31 31 31 31 32 32 32 32 32 31 31 30 31 31 32
21 21 23 24 25 26 27 27 26 24 25 26 26 25 24 24 23 23 23 24 24 24 24 23 22 21 22 22 22 21 20 19 18 18 19 18 17 17 17 18 19 19 18 17 18 18 19 19 18 17 17 16 17 17 19 20 21 23 24 26 27 27 27 28 29 29 29 30 30 31 31 31 31 32 32 32 32 32 32 32 32 32 32 32 33
20 21 23 23 24 25 25 25 21 20 22 23 23 23 23 23 23 23 24 25 25 24 24 23 22 22 22 22 21 21 20 18 18 18 18 18 17 17 17 18 19 19 18 17 18 18 18 18 18 17 17 16 17 18 19 21 22 24 25 26 27 27 28 28 29 29 30 30 31 31 32 32 32 32 32 32 32 33 32 32 33 33 33 34 35
20 22 22 23 24 24 25 24 20 19 21 21 21 22 23 22 22 22 23 23 24 23 23 22 22 23 23 21 20 20 19 18 18 18 18 19 18 18 18 19 19 19 18 17 17 17 18 18 18 17 17 17 18 19 20 22 23 25 26 27 28 28 28 29 29 29 30 31 31 31 31 32 32 32 32 33 33 33 32 33 33 33 34 36 37
22 23 22 23 23 24 27 25 21 21 21 21 21 21 22 22 21 21 22 22 22 23 22 23 24 23 22 21 20 19 19 18 18 18 18 19 18 18 18 19 20 20 19 17 17 17 17 17 16 16 17 18 19 21 22 24 25 26 27 28 29 29 29 29 29 30 31 31 31 31 32 32 32 33 33 33 32 32 32 33 33 35 36 37 38
22 22 22 23 24 26 27 25 23 24 23 21 22 22 22 23 23 22 23 23 22 22 22 24 24 23 22 21 20 20 19 19 19 18 18 18 18 18 18 19 21 20 18 17 17 17 16 16 15 16 17 19 21 23 24 26 27 28 29 29 29 29 29 29 30 30 31 31 31 32 32 32 33 33 33 33 32 32 32 33 34 36 37 38 39
22 24 24 25 25 27 27 26 25 25 24 22 22 23 24 24 25 24 23 23 21 21 22 24 24 23 21 20 20 19 20 19 18 17 17 18 18 18 19 20 20 18 16 16 16 15 15 15 15 17 18 20 22 24 26 27 28 29 30 30 29 29 29 30 30 30 31 31 32 32 32 32 33 33 32 32 32 32 33 34 35 37 38 39 40
24 27 27 26 26 26 27 26 24 22 22 21 21 23 25 25 24 24 23 22 21 21 23 23 22 21 19 18 18 19 19 19 18 17 17 18 19 19 20 20 19 17 16 16 15 14 14 14 16 18 20 22 24 25 27 28 29 29 30 30 30 30 30 31 31 31 32 32 32 32 32 32 32 32 31 31 31 32 34 35 37 38 40 41 42
26 29 27 27 27 25 25 26 25 21 20 19 20 21 22 23 23 24 24 24 24 22 22 21 20 20 19 17 17 18 19 18 17 17 17 18 19 21 20 19 17 16 15 13 12 12 13 15 17 19 21 23 25 26 27 28 28 29 29 30 30 31 32 32 32 32 32 32 32 32 32 32 32 31 31 32 33 34 36 37 39 40 42 43 44
26 28 26 27 28 26 24 24 23 22 21 22 22 22 22 23 24 25 24 25 24 22 21 20 19 19 20 18 18 18 18 18 17 17 18 19 21 20 18 15 14 13 12 11 11 12 14 16 18 20 22 24 25 26 27 28 28 28 29 30 31 31 32 32 32 32 32 32 32 32 32 32 32 32 32 33 35 36 38 39 41 42 43 44 45
25 27 25 25 27 26 24 23 22 21 22 23 24 24 24 25 25 24 23 24 22 20 20 21 20 20 20 20 19 18 18 18 17 17 18 19 18 16 14 12 11 11 10 11 12 14 15 17 19 21 22 24 25 26 27 27 28 29 30 31 31 32 32 32 32 32 33 33 33 32 32 31 32 32 33 35 37 38 40 41 42 43 44 45 46
25 26 24 24 24 24 24 23 22 21 21 23 24 24 26 27 25 22 23 23 22 22 21 23 23 21 20 20 19 19 19 18 18 18 18 17 16 13 12 11 10 10 11 12 13 15 16 18 19 21 22 23 24 25 26 27 28 29 30 30 31 31 31 31 31 32 33 33 33 33 32 32 32 32 34 36 37 39 41 42 43 44 45 46 47
25 24 24 24 23 25 24 22 22 21 21 23 24 25 26 27 24 23 23 22 21 23 22 24 25 22 19 19 18 18 19 18 18 18 17 15 14 13 11 11 11 11 12 13 15 15 16 18 19 20 22 23 24 25 26 27 28 28 29 29 29 30 30 30 30 31 32 32 32 33 33 33 33 34 35 36 38 40 42 43 44 45 46 48 50
24 23 24 24 24 26 24 21 21 20 21 22 23 25 26 25 22 21 21 20 20 21 22 23 24 21 17 17 17 17 17 17 17 17 16 14 13 12 11 12 12 13 13 14 15 15 16 18 19 20 21 23 24 25 26 26 27 27 28 28 29 29 29 30 30 30 31 31 32 32 33 34 35 37 38 38 40 42 43 44 44 46 48 51 53
Wind_Direction
333 334 332 332 334 334 334 336 340 342 343 347 351 354 357 1 8 8 5 6 6 4 1 2 359 358 10 21 25 25 23 21 19 17 16 16 18 20 21 19 16 16 12 6 358 355 359 2 3 3 1 359 357 357 358 0 4 6 8 7 5 3 0 358 355 351 351 352 351 348 345 344 344 345 346 347 348 350 350 349 348 346 344 342 339
332 334 335 337 338 338 339 340 341 342 341 344 348 351 354 356 3 6 2 4 4 2 1 2 357 354 7 18 22 23 22 21 20 18 15 14 14 15 16 15 13 12 11 6 356 351 355 359 0 359 357 356 356 357 359 5 12 14 12 10 7 3 360 358 355 352 352 352 348 345 345 346 347 348 348 349 350 350 348 345 342 340 338 335 334
331 331 333 336 338 338 340 342 342 342 341 342 345 347 349 351 358 3 360 1 1 1 360 1 356 351 3 13 18 20 21 21 20 18 15 12 11 12 12 11 9 7 6 2 356 351 352 355 356 354 353 354 357 1 6 13 18 18 14 11 8 4 1 359 357 354 352 350 347 346 347 348 349 348 347 348 348 347 344 341 338 335 332 330 329
328 327 331 334 335 337 339 341 343 342 340 340 341 343 344 346 353 358 357 358 358 359 358 358 355 349 359 7 13 18 20 21 20 19 16 12 11 10 10 9 6 3 0 356 354 351 351 350 350 348 348 352 358 7 16 18 17 19 17 14 10 7 3 0 358 354 352 349 347 346 346 346 347 345 344 344 344 344 343 341 337 333 331 329 328
323 324 328 331 333 335 337 339 341 341 340 338 337 338 338 341 348 353 353 354 355 357 356 355 354 349 355 1 8 17 21 22 20 19 16 13 11 11 11 9 5 1 357 353 350 347 347 343 343 344 345 351 359 18 24 18 17 18 17 15 11 6 5 1 358 354 351 348 344 343 341 341 342 340 340 340 341 343 344 342 338 335 333 331 330
322 324 325 327 331 333 335 337 338 337 337 336 333 333 333 336 343 348 348 349 352 354 353 353 354 349 350 355 5 15 21 22 20 18 15 13 11 11 11 11 7 2 357 352 346 341 340 337 338 339 342 350 3 26 24 17 13 12 12 11 7 3 1 358 355 352 348 343 341 339 337 337 339 339 338 339 340 342 345 344 340 337 335 333 331
320 324 324 322 326 330 332 334 335 333 332 331 329 328 328 330 337 343 343 345 349 352 351 352 353 348 346 351 2 13 21 23 20 17 14 12 11 12 12 12 10 6 2 354 345 338 334 333 333 334 338 349 4 23 15 11 7 4 3 3 2 358 356 353 350 346 342 340 339 337 335 336 338 339 339 339 340 344 347 347 342 338 335 332 329
317 320 321 318 320 324 328 331 332 331 328 325 324 325 324 325 331 337 338 340 346 349 348 349 351 347 343 348 360 10 19 22 19 17 14 12 11 11 11 13 13 11 7 0 350 340 336 333 329 328 332 342 358 11 6 1 358 356 354 354 353 351 350 347 343 340 338 338 337 336 334 334 337 338 338 340 342 345 347 344 339 334 330 327 325
313 316 317 318 319 321 323 327 329 328 324 320 320 321 320 320 325 331 333 336 341 345 345 344 348 345 340 345 355 7 17 20 18 16 13 11 10 10 11 12 15 15 12 6 357 347 340 333 329 324 318 312 308 355 357 352 349 348 347 347 345 344 343 340 339 337 337 336 334 333 333 335 337 338 339 341 343 344 343 338 332 327 323 321 320
308 314 316 320 324 323 321 323 326 325 321 317 317 317 315 315 320 326 328 330 336 339 340 338 343 342 335 339 348 4 13 17 17 15 11 9 7 8 10 12 14 15 15 11 4 354 345 338 333 322 306 286 279 332 347 344 342 341 341 341 339 338 338 338 339 337 335 333 332 333 334 336 338 339 340 341 341 339 336 330 325 321 319 318 319
305 313 316 323 328 326 320 320 323 322 318 315 314 313 311 311 316 322 324 326 329 330 332 329 337 335 324 329 342 360 9 13 15 12 8 5 4 5 8 11 13 13 14 12 8 1 352 347 338 320 299 279 278 310 333 337 336 335 335 333 334 333 332 335 337 336 333 331 331 332 334 336 337 337 337 337 336 333 328 323 320 319 319 320 319
304 312 315 325 331 327 321 321 322 320 316 314 312 310 309 310 315 320 321 321 319 320 324 317 323 321 309 318 333 350 2 8 11 8 3 360 0 2 4 8 9 9 10 9 7 3 357 350 337 315 293 278 276 298 325 331 331 330 328 326 326 327 326 329 330 330 328 328 328 329 332 333 333 333 333 334 333 330 327 324 322 321 320 319 318
304 310 316 327 331 326 323 322 322 320 317 315 313 311 311 311 316 318 317 313 307 313 317 303 303 302 295 303 317 337 353 2 4 0 355 353 355 358 0 2 3 2 1 1 1 358 355 345 329 308 289 280 281 299 322 327 327 325 324 322 319 320 320 321 321 321 322 323 324 326 330 332 333 334 335 335 334 331 328 325 322 321 320 319 319
302 307 317 326 329 326 323 321 320 319 317 316 315 314 315 315 316 315 312 305 299 309 308 287 283 285 283 290 303 321 341 353 352 346 342 342 348 354 356 357 356 353 352 350 348 346 345 337 320 303 287 279 283 299 317 323 323 322 322 317 311 312 312 314 315 318 321 322 324 329 333 337 339 338 337 335 332 329 326 323 321 320 319 319 321
300 308 317 322 324 324 322 318 315 315 315 315 316 315 316 316 313 310 306 297 294 302 296 275 268 272 274 279 289 304 324 340 339 331 326 331 341 348 351 353 352 347 343 337 331 327 325 323 313 301 289 279 282 293 304 313 316 316 315 310 306 308 310 313 315 319 322 325 329 335 339 340 339 337 334 331 328 326 323 320 318 317 317 318 321
301 309 315 318 319 319 320 316 311 310 310 312 313 313 314 313 308 305 298 290 289 291 280 266 261 262 267 272 277 287 304 321 321 315 311 318 331 339 343 346 348 344 339 331 320 311 307 307 304 298 289 280 280 286 294 302 307 308 306 306 306 309 312 314 317 321 324 329 335 340 342 339 337 333 329 326 323 321 318 315 314 314 315 319 320
302 307 312 317 317 317 319 315 309 306 306 307 307 307 310 308 305 301 291 283 282 279 270 262 256 257 261 265 268 275 287 298 300 299 299 304 317 327 332 336 342 340 335 327 314 303 297 296 295 293 285 278 277 282 290 296 298 296 295 298 300 304 308 312 317 321 328 335 339 342 340 335 331 326 323 320 317 315 314 312 311 313 316 318 319
299 303 309 315 316 317 319 314 308 304 302 303 302 303 305 305 303 296 284 278 276 271 265 260 252 253 256 258 262 269 277 284 288 291 293 295 304 313 319 324 331 334 329 321 311 298 290 289 288 286 282 276 277 282 289 294 295 292 290 290 292 298 303 312 320 326 332 334 335 333 328 324 321 318 316 314 312 311 311 311 312 315 317 317 318
297 302 307 312 315 316 317 313 307 302 302 302 298 299 304 305 301 294 285 279 275 269 264 260 253 252 255 257 259 265 275 282 287 291 292 293 296 302 308 314 321 325 322 314 306 296 287 282 281 279 275 272 274 280 285 290 292 294 296 295 298 302 308 316 321 326 326 324 323 318 314 314 313 312 310 308 307 307 309 310 311 314 317 317 317
298 302 306 310 312 315 315 311 305 300 301 300 295 297 303 303 299 293 288 282 276 269 263 259 255 254 257 259 261 265 274 281 287 292 293 292 291 294 298 304 311 316 314 308 300 294 287 280 276 273 269 266 268 274 280 283 285 289 295 298 303 307 311 312 315 317 313 313 312 308 308 309 308 308 306 303 303 304 306 307 308 312 315 316 315
297 301 305 308 310 313 312 309 303 297 296 294 288 289 296 296 294 291 287 283 277 269 262 260 257 256 259 262 264 266 272 277 284 289 289 288 287 286 289 293 300 305 306 303 297 292 287 281 275 271 268 264 264 270 276 280 282 286 292 299 304 308 310 310 311 309 307 307 305 305 307 307 306 305 303 301 302 304 306 306 306 310 313 313 312
296 299 302 304 308 310 310 307 302 295 293 288 279 280 286 287 286 284 281 279 276 269 261 259 259 258 261 265 267 270 272 275 280 284 283 282 281 280 280 283 288 294 298 299 296 292 288 283 276 273 271 266 263 267 273 278 282 287 293 298 303 306 306 306 305 305 306 305 304 306 306 306 306 305 304 303 303 305 306 306 305 308 310 310 309
293 297 299 302 306 308 308 306 301 295 291 281 271 274 280 281 281 279 277 275 273 268 259 257 258 258 260 265 270 272 274 276 280 281 279 276 276 276 275 274 277 284 290 294 295 293 290 285 278 273 271 268 264 265 269 275 282 286 289 291 293 294 295 298 300 304 306 304 304 306 306 305 306 305 304 304 304 305 305 304 305 306 307 306 305
291 294 297 301 303 305 307 308 305 297 287 273 266 272 277 278 278 275 273 272 271 266 258 254 254 256 259 263 268 272 275 278 280 278 275 272 273 273 272 270 270 274 282 289 294 293 289 285 279 274 272 269 268 268 272 277 281 283 282 282 283 286 290 295 300 303 304 303 305 305 304 304 304 303 303 302 303 303 303 302 303 303 302 302 302
290 293 296 299 301 302 301 308 316 301 278 271 269 272 274 274 273 272 272 271 269 266 260 254 252 253 256 259 264 268 271 274 276 276 274 272 271 271 270 269 267 268 273 282 289 291 286 280 274 272 273 273 273 272 273 276 278 279 280 282 285 289 293 296 298 299 299 302 304 302 302 302 302 302 301 301 301 301 300 300 300 299 299 299 300
289 292 294 297 297 297 291 288 298 297 291 291 281 274 272 270 269 270 272 271 267 263 260 257 253 252 252 253 256 260 264 268 271 271 271 271 271 271 271 269 266 264 266 270 278 282 280 272 263 262 266 269 268 267 269 272 275 279 284 288 291 293 294 294 294 295 297 299 300 299 300 301 301 301 300 300 299 298 298 297 298 297 298 299 299
288 291 293 294 292 292 287 276 273 279 289 295 288 277 272 269 269 270 272 271 265 260 259 258 256 255 252 249 250 254 258 260 263 266 269 271 272 274 274 271 266 262 261 262 267 272 273 269 261 257 260 262 263 266 270 275 279 283 288 291 292 293 294 293 293 294 295 297 298 299 299 300 300 299 299 298 298 297 297 297 298 298 299 300 301
287 290 290 290 288 286 284 277 271 272 279 286 284 278 273 270 268 270 273 273 264 259 259 258 258 256 254 252 252 253 255 255 258 263 269 272 273 274 273 271 267 263 260 259 261 266 269 267 264 262 264 266 267 270 274 278 282 286 289 290 291 293 293 293 294 294 296 297 298 297 297 298 298 298 299 299 299 299 299 299 300 300 301 301 302
286 287 286 285 284 282 280 277 271 270 273 277 278 276 273 271 269 269 273 272 266 261 259 259 257 256 256 256 257 258 259 259 261 265 268 269 269 269 269 269 268 265 262 259 259 263 267 267 266 266 269 270 270 271 273 277 281 284 286 287 289 291 292 293 294 294 295 295 295 296 296 297 298 299 300 300 301 301 300 300 300 301 301 301 301
285 283 282 281 279 277 276 274 270 268 269 270 271 271 269 270 269 267 269 270 268 263 258 259 258 257 258 260 263 264 266 268 269 269 266 265 265 265 267 267 267 265 262 260 259 261 264 267 266 267 270 271 269 270 272 277 280 282 283 285 287 289 291 292 294 294 294 294 295 297 297 299 299 300 300 301 301 301 300 300 300 300 300 300 300
282 279 278 277 276 274 272 270 266 264 264 264 265 265 265 267 265 264 266 268 267 262 258 259 260 260 262 265 268 269 271 274 273 270 267 265 266 267 267 267 266 264 261 259 258 259 261 264 266 268 270 271 271 271 274 278 280 281 283 284 287 289 291 292 292 293 294 296 297 298 299 299 300 300 301 301 300 300 300 299 300 300 300 300 301
278 276 275 275 274 272 269 266 262 259 259 259 258 259 261 262 261 261 264 265 262 258 257 259 261 263 267 270 271 272 274 275 273 272 270 270 271 271 270 268 267 264 260 257 256 256 258 261 265 268 269 270 271 273 276 279 281 283 284 286 288 289 291 291 291 293 295 298 298 299 300 300 301 302 302 301 300 300 300 300 300 300 300 301 302
274 273 273 272 272 269 267 264 260 257 256 255 254 255 257 257 257 258 261 261 257 254 254 257 261 267 272 273 273 274 275 275 274 274 274 274 274 273 272 270 268 266 260 256 254 254 257 261 265 267 268 268 270 272 276 280 282 284 285 287 288 289 290 291 293 295 297 298 299 300 301 302 302 302 301 301 301 301 301 301 301 301 301 301 302
270 270 270 270 269 266 263 260 257 254 253 252 252 251 252 252 253 256 259 258 254 252 253 257 264 271 274 275 275 275 276 276 276 277 277 275 273 270 270 270 270 267 261 255 253 254 258 262 266 269 269 268 269 272 277 280 283 284 285 287 288 290 291 293 295 297 298 298 299 301 302 303 303 302 302 301 302 303 302 302 301 301 301 300 300
268 268 269 269 266 262 259 256 253 250 249 249 249 249 248 248 251 256 258 258 255 252 256 262 267 271 273 274 275 277 277 277 279 280 279 276 271 268 268 270 271 269 262 255 253 255 260 263 265 266 266 266 268 272 277 280 283 284 286 288 289 291 292 294 296 296 297 298 300 302 303 303 303 303 303 303 303 303 302 301 301 300 299 299 299
267 268 267 264 259 256 254 252 249 247 246 247 247 246 245 246 251 256 258 258 256 255 258 263 267 270 274 275 277 279 280 280 283 283 282 278 273 270 270 271 272 269 262 256 254 257 261 263 264 263 262 263 266 271 276 281 283 285 287 288 289 291 292 294 295 296 298 301 303 304 304 304 304 304 304 305 304 303 302 301 300 299 298 298 298
266 264 260 255 253 252 252 250 247 245 245 246 246 245 245 246 251 255 257 256 255 255 258 262 266 270 274 276 279 281 282 283 285 285 284 281 277 274 274 273 272 268 262 257 256 258 261 262 261 260 262 264 267 272 277 281 284 286 287 288 289 291 293 295 297 299 302 303 304 304 304 304 305 306 306 306 305 303 302 300 299 298 298 298 298
260 255 250 249 250 252 252 250 247 247 247 248 248 248 248 250 252 254 254 252 252 253 256 261 265 268 272 276 279 281 282 284 285 285 284 281 279 277 276 275 272 267 262 257 256 257 259 260 259 261 265 267 271 276 280 283 285 287 288 289 292 294 296 298 300 302 303 304 304 305 306 307 307 307 307 306 305 303 302 301 300 299 298 298 298
248 243 243 247 250 251 251 250 250 250 251 250 251 252 253 254 254 253 251 250 251 253 257 260 263 267 271 274 278 279 281 282 283 283 282 280 279 278 276 273 271 265 259 256 254 254 256 257 260 264 268 271 276 281 284 285 286 287 288 290 293 295 298 300 302 303 304 305 306 307 308 308 308 308 307 305 304 303 302 301 300 299 299 298 298
236 237 241 245 247 249 251 250 248 247 247 247 247 248 248 249 251 250 249 250 251 254 258 260 263 266 270 274 277 279 280 280 280 279 278 279 278 277 274 271 268 262 255 253 252 253 256 258 262 267 271 275 279 282 282 283 284 286 288 291 295 298 301 302 303 304 305 306 307 308 308 309 308 307 306 304 303 302 301 301 300 299 299 298 298
230 234 238 242 246 250 252 249 242 240 241 242 244 245 242 242 245 246 248 251 253 256 260 262 263 264 269 273 277 280 279 275 274 275 276 278 277 275 271 266 262 257 251 251 254 256 260 263 267 272 276 280 283 283 283 284 287 290 293 297 300 302 303 304 304 305 306 307 308 308 309 308 307 306 305 303 302 301 300 300 299 298 298 298 298
228 233 235 241 246 249 251 248 240 237 239 239 243 245 239 239 245 247 248 251 253 256 260 261 261 263 266 270 276 281 277 271 270 273 275 276 274 272 267 261 257 253 249 251 257 260 264 267 272 279 283 286 288 288 289 292 295 297 299 301 303 304 304 304 305 306 307 308 309 309 309 308 306 305 304 303 302 301 300 299 299 299 299 300 300
229 234 237 242 245 247 251 249 238 234 237 241 242 242 239 240 246 247 248 251 253 255 257 258 259 261 263 268 277 279 273 268 268 271 273 272 269 268 265 259 256 254 251 254 259 262 266 271 278 285 288 290 291 293 295 298 300 301 302 303 303 304 304 305 306 307 308 309 310 309 308 307 306 305 305 304 303 302 301 301 301 302 302 302 301
231 237 238 241 245 247 251 249 240 234 236 244 246 243 242 244 248 251 250 251 252 253 254 254 257 260 264 272 276 273 268 266 267 269 270 267 265 264 263 259 255 253 252 255 259 263 268 276 283 287 290 292 294 297 299 301 303 304 304 304 304 304 305 306 307 308 309 310 310 309 308 307 307 306 306 304 304 303 304 304 304 304 304 303 302
233 240 241 244 247 249 252 252 248 242 240 250 252 244 244 247 249 251 252 250 250 252 253 254 258 262 267 273 274 269 266 267 268 268 267 265 263 262 260 256 251 250 252 256 261 268 275 282 287 289 292 295 297 299 301 302 303 304 305 305 306 306 307 308 309 310 311 310 310 309 308 308 308 306 305 305 306 306 307 307 306 306 305 305 304
236 242 243 248 251 251 254 255 254 250 249 256 254 244 246 248 245 248 253 253 249 248 251 252 255 258 262 269 271 268 267 268 267 265 265 262 258 257 255 251 249 251 257 263 269 276 282 286 289 291 294 296 298 300 301 302 303 304 304 305 306 307 308 309 310 311 310 310 309 309 309 309 308 308 308 309 309 309 309 309 308 308 307 307 306
237 243 244 247 251 252 255 256 254 251 251 254 253 251 252 248 244 247 253 254 250 248 248 249 252 255 258 264 269 268 268 266 262 259 261 258 255 254 251 250 254 259 263 268 272 278 284 287 290 293 296 297 298 300 301 302 303 304 304 305 306 307 308 308 309 309 309 310 310 311 310 310 309 309 310 311 311 311 310 310 310 309 309 309 308
238 246 247 249 251 254 257 256 251 249 248 251 254 256 255 249 247 250 254 254 252 254 253 251 256 259 259 264 270 271 269 263 256 254 257 259 260 259 256 256 259 262 266 268 272 278 284 288 292 295 296 298 299 301 302 304 305 305 306 306 306 307 307 307 308 309 310 311 311 311 310 310 310 310 311 311 311 311 311 311 311 311 311 311 310
240 247 249 251 253 253 252 251 250 250 249 251 253 254 252 249 249 253 257 253 250 254 252 249 254 258 261 267 269 270 267 258 250 250 253 257 260 259 255 255 256 259 264 267 273 280 286 291 294 296 298 299 301 303 305 306 306 306 306 306 306 306 306 307 308 309 310 311 311 310 310 309 309 310 310 310 310 311 312 313 313 313 313 313 312
242 247 248 250 251 250 247 247 249 251 249 249 248 248 247 248 250 254 256 252 250 254 253 250 251 251 255 263 265 264 260 251 245 249 256 257 255 252 249 248 250 255 261 267 275 283 289 293 295 298 300 302 304 305 306 306 306 307 307 307 307 307 307 308 309 309 310 310 310 310 309 309 309 309 310 310 310 312 313 314 314 315 315 315 315
242 246 249 249 250 250 249 248 248 246 244 243 242 243 246 248 254 257 254 250 250 253 258 255 246 241 248 260 262 258 250 245 244 249 257 258 251 244 241 241 247 255 263 270 278 286 291 295 298 301 302 304 305 306 307 307 308 308 309 309 309 308 309 309 310 310 310 310 310 310 310 310 310 311 312 312 313 315 315 316 316 317 318 318 317
Height
5900 5899 5899 5898 5897 5896 5895 5895 5895 5894 5894 5893 5893 5892 5892 5892 5891 5891 5889 5887 5886 5886 5885 5885 5884 5883 5883 5882 5881 5880 5879 5878 5877 5876 5875 5874 5873 5872 5871 5871 5871 5870 5870 5869 5869 5868 5868 5867 5867 5867 5866 5866 5866 5865 5864 5864 5863 5862 5862 5861 5861 5860 5860 5859 5859 5858 5858 5857 5857 5857 5856 5856 5856 5855 5855 5854 5854 5853 5853 5852 5852 5851 5851 5850 5850
5899 5899 5898 5897 5897 5896 5895 5894 5894 5894 5894 5893 5892 5892 5892 5891 5891 5891 5889 5887 5886 5886 5885 5884 5884 5883 5883 5882 5881 5880 5879 5878 5877 5876 5875 5874 5873 5872 5871 5870 5870 5870 5870 5869 5868 5868 5867 5867 5867 5866 5866 5866 5866 5865 5865 5864 5863 5862 5862 5861 5861 5860 5860 5859 5858 5858 5857 5857 5857 5856 5856 5856 5855 5855 5854 5854 5853 5853 5852 5852 5851 5851 5850 5850 5849
5899 5899 5898 5897 5896 5895 5894 5894 5894 5894 5893 5893 5892 5891 5891 5891 5891 5890 5889 5887 5886 5885 5884 5884 5884 5883 5883 5882 5881 5881 5880 5879 5877 5876 5875 5874 5873 5872 5871 5870 5869 5869 5869 5868 5868 5867 5867 5867 5866 5866 5866 5866 5865 5865 5865 5864 5863 5862 5862 5861 5860 5860 5859 5859 5858 5858 5857 5857 5856 5856 5856 5855 5855 5854 5854 5854 5853 5853 5852 5852 5851 5850 5850 5849 5848
5899 5899 5898 5897 5896 5895 5894 5894 5894 5894 5893 5892 5892 5891 5890 5890 5890 5889 5888 5887 5886 5885 5884 5884 5884 5883 5883 5882 5881 5881 5880 5879 5878 5877 5875 5874 5873 5872 5871 5870 5869 5868 5868 5868 5867 5867 5867 5866 5866 5866 5865 5865 5865 5865 5864 5864 5863 5862 5862 5861 5860 5860 5859 5859 5858 5858 5857 5857 5856 5856 5855 5855 5854 5854 5854 5853 5853 5852 5852 5851 5851 5850 5850 5849 5848
5899 5898 5897 5896 5896 5895 5895 5894 5894 5893 5893 5892 5891 5890 5890 5890 5889 5889 5888 5887 5886 5884 5884 5883 5883 5883 5882 5882 5881 5881 5880 5879 5878 5877 5875 5874 5873 5872 5871 5870 5868 5868 5867 5867 5867 5866 5866 5866 5865 5865 5865 5865 5865 5865 5864 5864 5863 5862 5861 5861 5860 5859 5859 5858 5858 5857 5857 5856 5856 5856 5855 5855 5854 5854 5853 5853 5852 5852 5851 5851 5850 5850 5849 5848 5848
5899 5898 5897 5896 5895 5895 5894 5894 5894 5893 5892 5891 5890 5889 5889 5889 5889 5888 5887 5886 5885 5884 5883 5883 5883 5882 5882 5881 5881 5880 5880 5879 5878 5877 5875 5874 5873 5872 5871 5869 5868 5867 5867 5866 5866 5866 5865 5865 5865 5865 5865 5865 5865 5864 5864 5864 5863 5862 5861 5861 5860 5859 5859 5858 5857 5857 5857 5856 5856 5855 5855 5854 5854 5854 5853 5853 5852 5851 5851 5850 5850 5849 5849 5848 5847
5898 5897 5896 5896 5895 5895 5894 5894 5893 5893 5892 5891 5890 5888 5888 5888 5888 5887 5886 5885 5884 5883 5883 5883 5882 5882 5881 5881 5881 5880 5879 5879 5878 5877 5875 5874 5873 5872 5870 5869 5868 5867 5867 5866 5866 5865 5865 5865 5864 5864 5864 5864 5864 5864 5864 5864 5863 5862 5861 5861 5860 5859 5858 5858 5857 5857 5856 5856 5855 5855 5855 5854 5854 5853 5853 5852 5852 5851 5850 5849 5849 5848 5848 5847 5846
5897 5896 5896 5895 5895 5894 5894 5893 5893 5892 5892 5891 5889 5887 5887 5887 5887 5887 5886 5884 5883 5883 5882 5882 5882 5881 5881 5881 5880 5880 5879 5878 5877 5876 5875 5874 5873 5872 5870 5869 5868 5867 5866 5866 5865 5865 5865 5864 5864 5864 5864 5864 5864 5864 5864 5863 5863 5862 5861 5861 5860 5859 5858 5857 5857 5856 5856 5856 5855 5855 5855 5854 5854 5853 5852 5852 5851 5850 5849 5849 5848 5847 5847 5846 5845
5896 5896 5895 5895 5895 5894 5893 5893 5893 5892 5891 5890 5888 5886 5886 5886 5886 5886 5884 5883 5882 5882 5882 5881 5881 5880 5880 5880 5880 5879 5878 5877 5877 5876 5875 5874 5873 5871 5870 5869 5868 5867 5866 5865 5865 5865 5864 5864 5864 5864 5863 5863 5863 5863 5863 5863 5862 5862 5861 5860 5860 5859 5858 5857 5856 5856 5856 5855 5855 5855 5854 5854 5853 5853 5852 5851 5850 5850 5849 5848 5848 5846 5845 5844 5843
5895 5895 5895 5894 5894 5894 5893 5893 5892 5891 5890 5889 5887 5886 5885 5885 5885 5885 5883 5882 5882 5881 5881 5880 5880 5880 5880 5879 5879 5878 5878 5877 5876 5875 5875 5874 5872 5871 5870 5869 5867 5866 5865 5865 5865 5864 5864 5864 5864 5864 5863 5863 5863 5863 5863 5862 5862 5862 5861 5860 5859 5858 5857 5857 5856 5856 5855 5855 5855 5854 5854 5853 5853 5852 5851 5851 5850 5849 5848 5848 5846 5845 5844 5843 5842
5894 5894 5894 5894 5894 5893 5893 5892 5891 5890 5889 5888 5886 5885 5884 5884 5884 5883 5882 5881 5881 5880 5880 5879 5879 5879 5879 5879 5878 5878 5877 5876 5876 5875 5874 5873 5872 5871 5870 5868 5867 5866 5865 5865 5864 5864 5864 5864 5864 5864 5863 5863 5863 5863 5862 5862 5862 5861 5860 5860 5859 5858 5857 5856 5856 5855 5855 5855 5854 5854 5853 5853 5852 5852 5851 5850 5849 5849 5848 5846 5845 5844 5842 5841 5840
5893 5893 5893 5893 5893 5892 5892 5891 5890 5889 5888 5887 5885 5884 5883 5883 5883 5882 5881 5880 5880 5879 5879 5878 5878 5878 5878 5878 5877 5877 5876 5875 5875 5874 5874 5873 5872 5871 5870 5868 5867 5866 5865 5864 5864 5864 5863 5863 5863 5863 5863 5863 5862 5862 5862 5861 5861 5860 5860 5859 5858 5857 5856 5856 5855 5855 5854 5854 5854 5853 5853 5852 5852 5851 5850 5850 5849 5848 5847 5845 5844 5842 5841 5840 5839
5891 5892 5892 5892 5892 5891 5891 5890 5889 5888 5887 5885 5884 5883 5882 5882 5882 5881 5880 5879 5879 5879 5878 5877 5877 5877 5877 5876 5876 5876 5875 5875 5874 5873 5873 5872 5871 5871 5869 5868 5867 5866 5865 5864 5864 5863 5863 5863 5863 5863 5862 5862 5862 5862 5862 5861 5860 5860 5859 5858 5857 5857 5856 5855 5854 5854 5854 5853 5853 5853 5852 5852 5851 5851 5850 5849 5848 5847 5846 5844 5842 5841 5840 5839 5838
5890 5891 5891 5891 5891 5890 5889 5889 5888 5886 5885 5884 5883 5882 5882 5882 5881 5880 5879 5879 5878 5878 5877 5877 5876 5876 5876 5876 5875 5875 5874 5874 5873 5873 5872 5872 5871 5870 5869 5868 5867 5866 5865 5864 5863 5863 5862 5862 5862 5862 5862 5862 5862 5862 5861 5861 5860 5859 5859 5858 5857 5856 5855 5855 5854 5854 5853 5853 5853 5852 5852 5852 5851 5850 5849 5848 5847 5846 5844 5843 5841 5840 5839 5838 5837
5889 5890 5890 5890 5890 5889 5888 5887 5886 5885 5884 5883 5882 5881 5881 5881 5880 5879 5878 5878 5877 5877 5876 5876 5875 5875 5875 5875 5874 5874 5873 5873 5872 5872 5871 5871 5871 5870 5869 5868 5867 5866 5865 5864 5863 5863 5862 5861 5861 5861 5861 5861 5861 5861 5861 5860 5859 5859 5858 5857 5857 5856 5855 5855 5854 5854 5853 5853 5853 5853 5852 5852 5851 5850 5849 5847 5846 5845 5843 5841 5840 5839 5838 5837 5836
5887 5888 5889 5889 5888 5888 5887 5886 5885 5884 5883 5882 5881 5881 5880 5880 5879 5878 5877 5877 5876 5876 5875 5875 5875 5874 5874 5874 5873 5872 5872 5871 5871 5871 5871 5870 5870 5870 5869 5868 5867 5866 5865 5864 5863 5863 5862 5861 5861 5861 5861 5861 5861 5860 5860 5860 5859 5858 5858 5857 5857 5856 5855 5855 5854 5854 5854 5853 5853 5853 5852 5851 5850 5849 5848 5846 5845 5843 5842 5840 5839 5838 5837 5836 5835
5886 5886 5887 5887 5887 5886 5886 5885 5884 5882 5881 5881 5880 5880 5879 5879 5878 5877 5877 5876 5876 5875 5874 5874 5874 5874 5873 5873 5872 5871 5871 5870 5870 5870 5870 5869 5869 5869 5868 5868 5867 5866 5865 5864 5863 5862 5862 5861 5860 5860 5860 5860 5860 5860 5859 5859 5859 5858 5858 5857 5857 5856 5855 5855 5854 5854 5854 5854 5853 5852 5852 5851 5849 5848 5846 5844 5843 5842 5840 5839 5838 5837 5836 5835 5833
5884 5884 5885 5885 5885 5885 5885 5884 5882 5881 5880 5879 5879 5878 5878 5877 5877 5876 5876 5875 5875 5874 5874 5873 5873 5873 5872 5871 5871 5870 5869 5869 5869 5869 5869 5869 5869 5868 5868 5867 5866 5865 5864 5863 5862 5862 5861 5861 5860 5859 5859 5859 5859 5859 5859 5859 5858 5858 5858 5857 5856 5856 5855 5855 5855 5854 5854 5854 5853 5852 5851 5849 5848 5846 5844 5843 5841 5840 5839 5838 5837 5837 5835 5834 5832
5882 5883 5883 5884 5884 5884 5883 5882 5881 5880 5879 5878 5878 5877 5877 5876 5876 5875 5875 5874 5874 5873 5873 5872 5872 5872 5871 5870 5870 5869 5868 5868 5868 5868 5868 5868 5868 5868 5867 5867 5866 5865 5864 5863 5862 5861 5861 5860 5860 5859 5859 5858 5858 5858 5858 5858 5858 5857 5857 5857 5856 5856 5855 5855 5855 5854 5854 5853 5852 5851 5849 5848 5846 5845 5843 5841 5840 5839 5838 5837 5836 5835 5834 5832 5831
5881 5881 5882 5882 5882 5882 5881 5880 5879 5878 5877 5877 5876 5876 5875 5875 5875 5874 5874 5873 5872 5872 5872 5871 5871 5871 5870 5870 5869 5868 5867 5867 5867 5867 5867 5867 5867 5867 5866 5866 5865 5864 5863 5862 5861 5861 5860 5860 5859 5859 5858 5858 5858 5858 5858 5858 5857 5857 5856 5856 5856 5855 5855 5854 5854 5853 5852 5851 5850 5849 5847 5846 5845 5843 5842 5840 5838 5838 5837 5836 5834 5833 5832 5830 5829
5879 5880 5880 5880 5880 5880 5879 5878 5877 5876 5875 5875 5875 5874 5874 5873 5873 5873 5872 5872 5871 5871 5870 5870 5870 5870 5869 5869 5868 5867 5866 5866 5866 5866 5866 5866 5865 5865 5865 5865 5865 5864 5863 5862 5861 5860 5860 5859 5859 5858 5858 5858 5857 5857 5857 5857 5857 5856 5856 5855 5855 5854 5854 5853 5852 5851 5850 5850 5848 5847 5846 5845 5844 5842 5840 5838 5837 5836 5835 5834 5833 5832 5830 5828 5827
5878 5878 5878 5878 5879 5878 5877 5876 5875 5874 5873 5873 5873 5872 5872 5872 5872 5871 5871 5870 5870 5870 5869 5868 5868 5868 5868 5868 5867 5866 5865 5865 5865 5865 5865 5864 5864 5864 5864 5864 5863 5863 5862 5861 5861 5860 5859 5859 5858 5858 5858 5857 5857 5857 5857 5857 5857 5856 5855 5855 5854 5853 5852 5851 5850 5849 5849 5848 5847 5845 5845 5843 5842 5840 5839 5837 5836 5835 5834 5832 5831 5830 5828 5826 5825
5876 5876 5877 5877 5877 5876 5875 5874 5872 5871 5870 5870 5871 5871 5870 5870 5870 5870 5869 5869 5869 5868 5867 5867 5866 5867 5867 5867 5866 5865 5864 5864 5863 5863 5863 5863 5862 5862 5862 5862 5862 5862 5861 5861 5860 5859 5858 5858 5858 5858 5857 5857 5856 5856 5856 5856 5856 5855 5855 5854 5853 5851 5850 5850 5849 5848 5847 5846 5845 5844 5843 5842 5840 5839 5837 5836 5834 5833 5831 5830 5829 5827 5826 5824 5824
5875 5875 5875 5875 5875 5874 5874 5872 5870 5868 5867 5869 5870 5869 5869 5869 5869 5868 5867 5867 5867 5867 5866 5865 5865 5865 5865 5865 5865 5864 5863 5863 5862 5862 5862 5861 5861 5861 5860 5860 5860 5860 5860 5860 5859 5859 5858 5857 5857 5857 5857 5856 5855 5855 5855 5855 5855 5854 5853 5852 5851 5850 5849 5848 5848 5847 5846 5843 5842 5842 5841 5840 5838 5837 5836 5834 5833 5831 5829 5828 5827 5825 5824 5822 5821
5873 5873 5873 5873 5872 5872 5872 5871 5869 5867 5867 5868 5868 5867 5867 5867 5867 5866 5866 5866 5866 5865 5864 5864 5863 5863 5863 5863 5863 5862 5862 5861 5861 5861 5860 5860 5859 5859 5859 5859 5859 5859 5859 5859 5858 5858 5857 5857 5856 5856 5856 5855 5855 5854 5853 5853 5853 5852 5852 5851 5850 5849 5848 5847 5847 5846 5844 5841 5841 5840 5839 5838 5836 5835 5834 5832 5831 5829 5827 5826 5824 5823 5822 5820 5819
5870 5870 5870 5871 5870 5870 5870 5870 5868 5867 5867 5867 5867 5866 5865 5865 5865 5864 5864 5864 5864 5864 5863 5862 5862 5861 5861 5860 5860 5860 5860 5860 5859 5859 5858 5858 5858 5858 5858 5858 5858 5857 5857 5857 5857 5857 5856 5856 5855 5854 5854 5854 5853 5853 5852 5852 5851 5851 5850 5849 5848 5847 5846 5846 5845 5845 5842 5840 5839 5838 5837 5836 5834 5833 5831 5830 5829 5827 5825 5824 5822 5821 5819 5818 5816
5868 5868 5868 5868 5868 5868 5868 5868 5867 5866 5866 5867 5866 5865 5864 5863 5863 5863 5862 5862 5862 5861 5861 5861 5861 5860 5860 5859 5858 5857 5857 5857 5857 5856 5856 5857 5857 5856 5856 5856 5856 5855 5855 5855 5855 5855 5855 5855 5854 5853 5853 5853 5852 5852 5851 5850 5850 5849 5849 5848 5847 5846 5845 5844 5843 5843 5841 5839 5838 5837 5835 5833 5832 5830 5829 5827 5826 5824 5823 5821 5820 5818 5816 5815 5813
5866 5866 5866 5866 5866 5865 5865 5865 5865 5864 5864 5865 5864 5863 5862 5861 5861 5861 5861 5860 5860 5859 5859 5859 5859 5859 5858 5857 5856 5855 5855 5854 5854 5854 5854 5855 5855 5854 5854 5854 5854 5854 5853 5853 5853 5853 5854 5854 5853 5853 5852 5852 5851 5851 5850 5849 5848 5848 5847 5846 5845 5844 5843 5842 5841 5840 5839 5838 5836 5835 5833 5831 5830 5828 5826 5825 5823 5821 5820 5818 5817 5816 5814 5812 5810
5864 5863 5863 5863 5863 5863 5863 5863 5862 5862 5862 5863 5862 5861 5860 5859 5860 5859 5859 5858 5858 5858 5858 5858 5857 5857 5856 5856 5855 5854 5853 5853 5853 5853 5853 5853 5853 5852 5852 5852 5852 5851 5851 5851 5852 5852 5852 5852 5852 5852 5851 5851 5850 5849 5848 5847 5847 5846 5845 5845 5844 5843 5842 5840 5839 5838 5837 5836 5835 5833 5831 5829 5827 5826 5824 5822 5820 5819 5817 5816 5814 5813 5811 5810 5808
5862 5861 5861 5861 5861 5860 5860 5860 5860 5860 5860 5860 5860 5859 5858 5857 5857 5857 5857 5856 5856 5856 5857 5856 5855 5855 5854 5853 5853 5852 5852 5852 5852 5852 5851 5851 5851 5850 5850 5849 5849 5849 5849 5849 5850 5850 5850 5850 5851 5851 5850 5849 5848 5847 5846 5846 5845 5845 5844 5843 5842 5841 5840 5839 5838 5836 5835 5834 5833 5831 5829 5827 5826 5824 5822 5820 5818 5816 5815 5813 5811 5810 5809 5807 5805
5859 5858 5858 5858 5858 5858 5857 5857 5857 5857 5857 5857 5857 5856 5856 5855 5855 5855 5855 5854 5854 5854 5855 5854 5854 5853 5852 5852 5851 5850 5850 5850 5850 5850 5850 5849 5849 5848 5848 5847 5847 5847 5847 5847 5847 5848 5848 5848 5849 5849 5848 5847 5846 5845 5844 5844 5844 5843 5842 5842 5841 5840 5839 5838 5836 5835 5833 5832 5830 5829 5827 5826 5824 5822 5820 5818 5816 5814 5812 5810 5809 5807 5806 5804 5803
5856 5855 5855 5855 5855 5855 5854 5854 5854 5854 5854 5854 5854 5853 5853 5853 5853 5853 5853 5852 5852 5852 5853 5852 5851 5851 5851 5850 5849 5849 5849 5849 5848 5848 5848 5847 5847 5847 5846 5845 5845 5844 5844 5845 5845 5845 5845 5846 5846 5846 5846 5845 5844 5843 5843 5842 5842 5841 5841 5840 5839 5838 5837 5836 5835 5833 5832 5830 5828 5827 5825 5824 5822 5820 5818 5816 5814 5812 5810 5808 5806 5805 5803 5801 5800
5853 5853 5853 5853 5852 5852 5851 5851 5851 5851 5851 5851 5851 5850 5851 5851 5851 5851 5851 5850 5850 5850 5850 5849 5849 5849 5849 5848 5848 5847 5847 5847 5846 5846 5846 5846 5845 5845 5844 5844 5843 5843 5843 5843 5843 5843 5843 5844 5844 5844 5844 5843 5842 5842 5841 5841 5840 5840 5839 5838 5837 5837 5836 5834 5833 5831 5830 5828 5826 5825 5823 5821 5819 5817 5815 5813 5811 5809 5807 5805 5804 5802 5800 5799 5797
5850 5850 5850 5850 5849 5848 5848 5848 5848 5847 5847 5847 5847 5848 5848 5848 5849 5849 5849 5848 5848 5848 5848 5847 5847 5847 5847 5846 5846 5846 5846 5845 5845 5845 5844 5844 5843 5843 5843 5842 5842 5841 5841 5841 5841 5841 5842 5842 5842 5842 5842 5841 5841 5840 5839 5839 5838 5838 5837 5836 5835 5835 5833 5832 5831 5829 5827 5826 5824 5822 5821 5819 5817 5815 5813 5811 5809 5806 5805 5803 5801 5800 5798 5796 5794
5847 5847 5847 5846 5846 5845 5845 5844 5844 5844 5844 5844 5845 5846 5846 5846 5847 5847 5847 5847 5846 5846 5845 5845 5845 5845 5845 5844 5844 5844 5844 5843 5843 5843 5842 5842 5842 5841 5841 5841 5840 5840 5840 5840 5840 5840 5840 5841 5841 5841 5840 5840 5839 5838 5838 5837 5837 5836 5835 5834 5833 5833 5831 5830 5828 5827 5825 5824 5822 5820 5818 5816 5814 5812 5810 5808 5806 5804 5802 5800 5799 5797 5795 5794 5792
5844 5844 5844 5843 5842 5842 5841 5841 5841 5840 5840 5841 5843 5844 5844 5844 5845 5845 5845 5845 5844 5843 5843 5843 5843 5843 5843 5843 5842 5842 5842 5841 5841 5841 5841 5840 5840 5840 5839 5839 5839 5838 5838 5838 5838 5839 5839 5839 5839 5839 5838 5838 5837 5837 5836 5835 5835 5834 5833 5832 5831 5830 5829 5828 5826 5824 5823 5821 5819 5817 5815 5813 5811 5809 5807 5805 5803 5801 5800 5798 5796 5795 5793 5791 5790
5842 5841 5841 5839 5839 5838 5838 5838 5837 5837 5838 5840 5841 5841 5842 5842 5843 5843 5843 5842 5841 5841 5841 5841 5841 5842 5842 5841 5841 5840 5840 5840 5840 5840 5839 5839 5839 5838 5838 5837 5837 5837 5837 5837 5837 5837 5837 5837 5837 5836 5836 5836 5836 5835 5834 5834 5833 5832 5831 5830 5829 5828 5827 5825 5824 5822 5820 5818 5816 5815 5813 5811 5809 5806 5804 5802 5800 5799 5797 5795 5794 5792 5790 5789 5787
5839 5838 5837 5836 5836 5836 5835 5834 5834 5836 5837 5839 5839 5840 5841 5841 5841 5841 5840 5840 5839 5839 5839 5839 5840 5840 5840 5839 5839 5839 5838 5838 5838 5838 5838 5838 5837 5837 5836 5836 5835 5835 5835 5835 5835 5835 5835 5835 5835 5835 5834 5834 5834 5833 5833 5832 5831 5830 5829 5828 5827 5826 5824 5822 5821 5819 5817 5815 5814 5812 5810 5808 5806 5803 5801 5799 5797 5796 5794 5792 5790 5789 5787 5785 5784
5836 5835 5834 5834 5833 5832 5832 5832 5833 5835 5836 5837 5838 5839 5839 5839 5839 5839 5838 5837 5837 5837 5837 5837 5838 5838 5838 5838 5837 5837 5837 5837 5837 5836 5836 5836 5836 5835 5835 5834 5834 5834 5833 5833 5833 5833 5833 5833 5833 5833 5833 5833 5832 5832 5831 5830 5829 5828 5827 5826 5825 5823 5822 5820 5818 5816 5814 5813 5811 5809 5807 5805 5803 5801 5799 5797 5795 5793 5791 5789 5787 5786 5784 5782 5780
5833 5832 5831 5831 5830 5829 5829 5830 5831 5833 5834 5835 5835 5836 5836 5836 5836 5836 5835 5835 5834 5835 5835 5836 5836 5836 5836 5835 5835 5835 5835 5835 5835 5835 5835 5834 5834 5834 5834 5833 5833 5832 5831 5831 5831 5832 5832 5832 5832 5831 5831 5831 5830 5830 5829 5829 5828 5826 5825 5824 5822 5821 5819 5817 5815 5813 5811 5810 5808 5806 5804 5802 5800 5798 5796 5794 5792 5790 5788 5786 5784 5782 5781 5779 5777
5830 5829 5829 5828 5827 5827 5826 5827 5829 5830 5830 5832 5832 5832 5832 5833 5833 5833 5833 5832 5832 5833 5833 5834 5834 5834 5833 5833 5833 5833 5833 5833 5833 5833 5833 5832 5832 5832 5832 5831 5831 5830 5830 5830 5830 5830 5830 5830 5830 5829 5829 5829 5828 5828 5827 5826 5825 5824 5823 5821 5819 5818 5816 5814 5812 5810 5808 5807 5805 5803 5801 5799 5797 5795 5793 5791 5789 5787 5785 5783 5781 5779 5777 5775 5773
5827 5826 5825 5825 5825 5825 5823 5824 5827 5827 5827 5829 5830 5829 5830 5830 5830 5830 5830 5830 5830 5831 5831 5832 5831 5831 5831 5831 5831 5831 5831 5831 5830 5831 5830 5830 5830 5830 5830 5830 5829 5828 5828 5828 5829 5829 5829 5829 5828 5828 5827 5827 5826 5825 5824 5824 5823 5821 5820 5818 5816 5815 5813 5811 5809 5807 5805 5804 5801 5799 5798 5796 5794 5792 5790 5788 5786 5784 5783 5780 5778 5776 5774 5771 5769
5824 5822 5822 5822 5822 5822 5820 5822 5824 5824 5825 5826 5827 5827 5827 5827 5827 5827 5827 5827 5828 5829 5829 5830 5829 5829 5828 5828 5829 5829 5829 5829 5828 5828 5828 5828 5828 5828 5828 5828 5827 5827 5827 5827 5828 5827 5827 5827 5827 5826 5825 5824 5824 5823 5822 5821 5820 5818 5817 5815 5814 5812 5810 5808 5806 5804 5802 5800 5798 5797 5795 5793 5791 5789 5787 5785 5783 5781 5779 5777 5775 5772 5770 5767 5765
5820 5818 5818 5818 5819 5819 5819 5819 5821 5822 5823 5824 5825 5825 5825 5824 5824 5823 5824 5824 5826 5827 5827 5827 5827 5826 5826 5826 5827 5827 5827 5826 5826 5826 5826 5826 5826 5826 5826 5826 5826 5826 5826 5826 5826 5826 5826 5825 5825 5824 5823 5822 5822 5821 5820 5818 5817 5815 5813 5812 5810 5809 5807 5805 5803 5801 5799 5797 5795 5794 5792 5790 5788 5786 5784 5782 5780 5778 5776 5773 5771 5768 5766 5763 5761
5816 5814 5815 5815 5816 5817 5817 5817 5819 5821 5821 5822 5822 5822 5822 5822 5822 5821 5821 5822 5824 5825 5825 5825 5825 5824 5824 5824 5824 5825 5825 5824 5824 5824 5824 5824 5824 5824 5824 5824 5824 5824 5825 5825 5825 5825 5824 5824 5823 5822 5821 5820 5820 5819 5817 5816 5814 5812 5810 5808 5806 5805 5803 5802 5800 5798 5796 5794 5793 5791 5789 5787 5785 5783 5781 5779 5777 5775 5772 5770 5767 5764 5762 5759 5756
5812 5812 5814 5814 5814 5815 5815 5815 5817 5818 5819 5819 5819 5819 5820 5820 5820 5820 5820 5820 5821 5822 5822 5822 5822 5822 5822 5822 5822 5822 5822 5822 5822 5822 5822 5822 5822 5822 5822 5822 5822 5823 5823 5823 5823 5823 5823 5822 5821 5820 5820 5819 5818 5817 5815 5814 5812 5810 5808 5806 5804 5802 5800 5798 5796 5794 5793 5791 5789 5788 5786 5784 5782 5780 5777 5775 5773 5770 5768 5766 5763 5760 5757 5754 5752
5810 5811 5813 5813 5813 5813 5812 5813 5815 5816 5817 5817 5816 5817 5818 5818 5818 5818 5818 5817 5818 5819 5819 5819 5820 5820 5820 5820 5820 5820 5820 5820 5820 5820 5820 5820 5820 5820 5820 5821 5821 5822 5822 5822 5822 5822 5821 5820 5820 5819 5818 5817 5816 5814 5813 5811 5810 5808 5806 5804 5802 5800 5797 5795 5793 5792 5790 5788 5786 5784 5783 5781 5778 5776 5774 5771 5769 5767 5764 5762 5759 5756 5753 5750 5747
5808 5809 5810 5811 5811 5811 5811 5812 5813 5814 5815 5815 5814 5814 5815 5815 5815 5816 5816 5816 5816 5818 5818 5817 5817 5818 5818 5818 5818 5818 5818 5818 5818 5819 5819 5818 5818 5819 5819 5820 5820 5821 5821 5821 5821 5820 5819 5819 5818 5817 5816 5815 5814 5812 5811 5809 5807 5805 5803 5801 5799 5797 5795 5793 5791 5789 5786 5785 5783 5781 5780 5778 5775 5773 5771 5768 5765 5763 5760 5758 5755 5752 5749 5746 5742
5807 5807 5809 5808 5809 5808 5808 5809 5810 5812 5812 5812 5813 5812 5812 5812 5812 5814 5814 5814 5815 5815 5816 5816 5815 5816 5816 5816 5816 5816 5816 5817 5817 5817 5817 5817 5817 5818 5818 5819 5819 5820 5820 5819 5819 5819 5818 5817 5816 5815 5814 5813 5812 5810 5808 5807 5805 5803 5801 5799 5797 5795 5793 5791 5788 5786 5784 5782 5780 5778 5776 5775 5773 5770 5768 5766 5763 5760 5757 5754 5751 5748 5744 5741 5738
5805 5806 5806 5806 5806 5806 5806 5807 5808 5809 5809 5810 5810 5810 5810 5809 5810 5811 5811 5811 5812 5812 5813 5814 5813 5814 5814 5814 5814 5814 5814 5815 5816 5816 5816 5816 5816 5817 5817 5818 5818 5818 5818 5818 5818 5817 5816 5815 5815 5814 5812 5811 5810 5808 5806 5805 5803 5801 5799 5796 5794 5792 5790 5788 5786 5784 5782 5779 5777 5775 5773 5771 5769 5767 5765 5763 5760 5757 5754 5750 5747 5743 5740 5736 5733
5803 5804 5804 5804 5804 5803 5804 5805 5805 5806 5807 5807 5808 5808 5807 5807 5807 5808 5809 5809 5810 5810 5810 5810 5810 5811 5812 5812 5812 5812 5812 5813 5814 5814 5814 5814 5815 5816 5816 5817 5817 5817 5817 5816 5816 5815 5815 5814 5813 5812 5811 5809 5808 5806 5804 5803 5801 5798 5796 5794 5792 5790 5788 5786 5784 5781 5779 5777 5774 5772 5769 5767 5765 5763 5761 5758 5756 5753 5749 5746 5743 5739 5735 5731 5727